Simultaneous Nadir Overpasses (SNOs) Predictions

Prediction of SNOs between GOES-14 and AQUA Satellite Orbit:

Table of predicted SNOs for the next 14.0 days since TLE Epoch: 10/2/2021
Index Date Time (GOES-14) GOES-14 Lat,Lon AQUA Lat,Lon Distance(km) Time Diff (sec)
1 10/03/2021 08:35:40 0.30,-104.23 0.41,-104.64 46.35 80
2 10/05/2021 08:20:49 0.30,-104.23 -0.24,-101.68 289.61 80
3 10/05/2021 20:42:13 -0.29,-104.20 -0.87,-106.87 303.78 80
4 10/07/2021 20:32:42 -0.29,-104.20 -0.21,-103.92 32.96 80
5 10/09/2021 20:20:30 -0.29,-104.21 0.39,-100.95 369.57 80
6 10/10/2021 08:41:46 0.27,-104.26 0.69,-106.11 211.84 80
7 10/12/2021 08:26:55 0.27,-104.24 0.02,-103.16 123.41 80
8 10/12/2021 20:48:17 -0.25,-104.17 -1.17,-108.34 475.72 80
9 10/14/2021 08:14:43 0.27,-104.23 -0.60,-100.20 458.84 80
10 10/14/2021 20:36:07 -0.25,-104.16 -0.48,-105.39 139.45 80
